• In United Kingdom
  • List of Countries
  • For 7 days
  • Water Temperature
  • Satellite Maps
  • Weather Map
  • Weather Widgets
  • user-avatar
    Login

    Hourly Weather Barra

    Today, 14 December, Thursday

    Time Temperature Precipitation Wind Pressure Humidity
    00:00 +24°C° 0.1 mm 2 mps 747 mmHg 86%
    01:00 +23°C° 0.1 mm 2 mps 747 mmHg 88%
    02:00 +23°C° 0.1 mm 2 mps 747 mmHg 90%
    03:00 +23°C° 0.1 mm 2 mps 746 mmHg 92%
    04:00 +23°C° 0.1 mm 2 mps 746 mmHg 94%
    05:00 +24°C° 0 mm 2 mps 746 mmHg 90%
    06:00 +25°C° 0 mm 2 mps 747 mmHg 85%
    07:00 +25°C° 0 mm 2 mps 747 mmHg 81%
    08:00 +28°C° 0 mm 2 mps 747 mmHg 68%
    09:00 +30°C° 0 mm 3 mps 747 mmHg 55%
    10:00 +34°C° 0 mm 3 mps 746 mmHg 42%
    11:00 +35°C° 0 mm 3 mps 746 mmHg 39%
    12:00 +36°C° 0 mm 4 mps 745 mmHg 35%
    13:00 +36°C° 0 mm 4 mps 745 mmHg 31%
    14:00 +36°C° 0 mm 4 mps 745 mmHg 34%
    15:00 +35°C° 0 mm 4 mps 744 mmHg 36%
    16:00 +34°C° 0 mm 4 mps 744 mmHg 38%
    17:00 +31°C° 0 mm 3 mps 744 mmHg 49%
    18:00 +29°C° 0 mm 3 mps 744 mmHg 59%
    19:00 +27°C° 0 mm 2 mps 745 mmHg 69%
    20:00 +26°C° 0 mm 2 mps 745 mmHg 75%
    21:00 +25°C° 0 mm 2 mps 746 mmHg 80%
    22:00 +25°C° 0 mm 2 mps 746 mmHg 85%
    23:00 +25°C° 0 mm 2 mps 746 mmHg 86%

    Tomorrow, 15 December, Friday

    Time Temperature Precipitation Wind Pressure Humidity
    00:00 +25°C° 0 mm 2 mps 746 mmHg 88%
    01:00 +24°C° 0 mm 2 mps 746 mmHg 89%
    02:00 +24°C° 0 mm 2 mps 746 mmHg 91%
    03:00 +24°C° 0 mm 2 mps 745 mmHg 92%
    04:00 +24°C° 0 mm 2 mps 745 mmHg 93%
    05:00 +25°C° 0 mm 2 mps 746 mmHg 89%
    06:00 +26°C° 0 mm 2 mps 746 mmHg 85%
    07:00 +27°C° 0 mm 2 mps 746 mmHg 81%
    08:00 +29°C° 0 mm 2 mps 746 mmHg 70%
    09:00 +31°C° 0 mm 2 mps 746 mmHg 59%
    10:00 +34°C° 0 mm 2 mps 746 mmHg 48%
    11:00 +35°C° 0 mm 2 mps 746 mmHg 44%
    12:00 +36°C° 0 mm 3 mps 745 mmHg 39%
    13:00 +37°C° 0 mm 3 mps 745 mmHg 34%
    14:00 +36°C° 0 mm 3 mps 744 mmHg 37%
    15:00 +36°C° 0 mm 4 mps 744 mmHg 39%
    16:00 +35°C° 0 mm 4 mps 743 mmHg 41%
    17:00 +33°C° 0 mm 3 mps 744 mmHg 50%
    18:00 +30°C° 0 mm 3 mps 744 mmHg 59%
    19:00 +28°C° 0 mm 2 mps 745 mmHg 68%
    20:00 +27°C° 0 mm 2 mps 745 mmHg 72%
    21:00 +26°C° 0 mm 2 mps 746 mmHg 75%
    22:00 +25°C° 0 mm 2 mps 747 mmHg 78%
    23:00 +25°C° 0 mm 2 mps 747 mmHg 80%

    Day after tomorrow, 16 December, Saturday

    Time Temperature Precipitation Wind Pressure Humidity
    00:00 +25°C° 0 mm 3 mps 747 mmHg 82%
    01:00 +25°C° 0 mm 3 mps 746 mmHg 84%
    02:00 +25°C° 0 mm 2 mps 746 mmHg 87%
    03:00 +25°C° 0 mm 2 mps 746 mmHg 89%
    04:00 +25°C° 0 mm 2 mps 746 mmHg 91%
    05:00 +26°C° 0 mm 2 mps 746 mmHg 87%
    06:00 +26°C° 0 mm 2 mps 747 mmHg 83%
    07:00 +27°C° 0 mm 2 mps 747 mmHg 79%
    08:00 +29°C° 0 mm 2 mps 747 mmHg 68%
    09:00 +31°C° 0 mm 2 mps 747 mmHg 56%
    10:00 +34°C° 0 mm 2 mps 747 mmHg 44%
    11:00 +35°C° 0 mm 3 mps 747 mmHg 41%
    12:00 +36°C° 0 mm 3 mps 747 mmHg 38%
    13:00 +37°C° 0 mm 4 mps 746 mmHg 35%
    14:00 +36°C° 0 mm 4 mps 746 mmHg 37%
    15:00 +36°C° 0 mm 4 mps 745 mmHg 38%
    16:00 +35°C° 0 mm 4 mps 745 mmHg 40%
    17:00 +33°C° 0 mm 4 mps 745 mmHg 50%
    18:00 +30°C° 0 mm 3 mps 745 mmHg 60%
    19:00 +28°C° 0 mm 3 mps 746 mmHg 70%
    20:00 +27°C° 0 mm 3 mps 746 mmHg 75%
    21:00 +26°C° 0 mm 2 mps 747 mmHg 81%
    22:00 +25°C° 0 mm 2 mps 747 mmHg 86%
    23:00 +25°C° 0 mm 2 mps 747 mmHg 88%

    17 December, Sunday

    Time Temperature Precipitation Wind Pressure Humidity
    00:00 +25°C° 0 mm 2 mps 747 mmHg 89%
    01:00 +25°C° 0 mm 2 mps 746 mmHg 91%
    02:00 +25°C° 0.1 mm 2 mps 746 mmHg 92%
    03:00 +25°C° 0.1 mm 2 mps 746 mmHg 93%
    04:00 +25°C° 0.1 mm 2 mps 746 mmHg 94%
    05:00 +25°C° 0.1 mm 2 mps 746 mmHg 90%
    06:00 +26°C° 0.1 mm 2 mps 747 mmHg 86%
    07:00 +27°C° 0.1 mm 2 mps 747 mmHg 82%
    08:00 +29°C° 0.1 mm 3 mps 747 mmHg 71%
    09:00 +31°C° 0.1 mm 3 mps 747 mmHg 60%
    10:00 +34°C° 0.1 mm 4 mps 747 mmHg 49%
    11:00 +35°C° 0 mm 4 mps 747 mmHg 45%
    12:00 +36°C° 0 mm 5 mps 746 mmHg 41%
    13:00 +36°C° 0 mm 5 mps 746 mmHg 37%
    14:00 +36°C° 0 mm 5 mps 745 mmHg 37%
    15:00 +35°C° 0 mm 5 mps 745 mmHg 38%
    16:00 +35°C° 0 mm 5 mps 744 mmHg 38%
    17:00 +33°C° 0 mm 4 mps 745 mmHg 48%
    18:00 +29°C° 0 mm 3 mps 745 mmHg 58%
    19:00 +27°C° 0 mm 3 mps 745 mmHg 68%
    20:00 +26°C° 0 mm 3 mps 746 mmHg 74%
    21:00 +26°C° 0 mm 3 mps 746 mmHg 79%
    22:00 +25°C° 0 mm 3 mps 747 mmHg 85%
    23:00 +25°C° 0 mm 3 mps 747 mmHg 87%

    18 December, Monday

    Time Temperature Precipitation Wind Pressure Humidity
    00:00 +25°C° 0 mm 3 mps 746 mmHg 89%
    01:00 +25°C° 0 mm 3 mps 746 mmHg 90%
    02:00 +25°C° 0.1 mm 3 mps 746 mmHg 91%
    03:00 +25°C° 0.1 mm 3 mps 746 mmHg 93%
    04:00 +24°C° 0.1 mm 3 mps 745 mmHg 94%
    05:00 +25°C° 0.1 mm 3 mps 746 mmHg 90%
    06:00 +26°C° 0.1 mm 3 mps 746 mmHg 87%
    07:00 +27°C° 0.1 mm 4 mps 747 mmHg 84%
    08:00 +29°C° 0.1 mm 4 mps 747 mmHg 73%
    09:00 +32°C° 0.1 mm 4 mps 746 mmHg 63%
    10:00 +34°C° 0.1 mm 4 mps 746 mmHg 53%
    11:00 +34°C° 0 mm 4 mps 746 mmHg 50%
    12:00 +35°C° 0 mm 4 mps 745 mmHg 46%
    13:00 +36°C° 0 mm 4 mps 745 mmHg 43%
    14:00 +36°C° 0 mm 4 mps 744 mmHg 45%
    15:00 +35°C° 0 mm 4 mps 744 mmHg 47%
    16:00 +35°C° 0 mm 4 mps 744 mmHg 49%
    17:00 +33°C° 0 mm 4 mps 744 mmHg 57%
    18:00 +30°C° 0 mm 4 mps 745 mmHg 66%
    19:00 +28°C° 0 mm 3 mps 746 mmHg 75%
    20:00 +27°C° 0 mm 3 mps 746 mmHg 80%
    21:00 +26°C° 0 mm 3 mps 746 mmHg 86%
    22:00 +26°C° 0 mm 3 mps 747 mmHg 91%
    23:00 +26°C° 0.1 mm 3 mps 747 mmHg 91%

    19 December, Tuesday

    Time Temperature Precipitation Wind Pressure Humidity
    00:00 +26°C° 0.1 mm 3 mps 746 mmHg 91%
    01:00 +26°C° 0.1 mm 3 mps 746 mmHg 90%
    02:00 +26°C° 0.1 mm 3 mps 746 mmHg 91%
    03:00 +25°C° 0.1 mm 3 mps 746 mmHg 92%
    04:00 +25°C° 0.1 mm 3 mps 746 mmHg 93%
    05:00 +25°C° 0 mm 3 mps 746 mmHg 90%
    06:00 +26°C° 0 mm 3 mps 746 mmHg 88%
    07:00 +26°C° 0 mm 3 mps 747 mmHg 85%
    08:00 +29°C° 0 mm 3 mps 747 mmHg 73%
    09:00 +31°C° 0 mm 3 mps 747 mmHg 62%
    10:00 +34°C° 0 mm 3 mps 747 mmHg 51%
    11:00 +34°C° 0 mm 4 mps 746 mmHg 48%
    12:00 +35°C° 0 mm 4 mps 745 mmHg 46%
    13:00 +36°C° 0 mm 4 mps 745 mmHg 44%
    14:00 +35°C° 0 mm 4 mps 744 mmHg 45%
    15:00 +34°C° 0 mm 4 mps 744 mmHg 47%
    16:00 +34°C° 0 mm 4 mps 744 mmHg 48%
    17:00 +32°C° 0 mm 4 mps 744 mmHg 56%
    18:00 +29°C° 0 mm 3 mps 745 mmHg 64%
    19:00 +27°C° 0 mm 3 mps 745 mmHg 72%
    20:00 +27°C° 0 mm 3 mps 746 mmHg 78%
    21:00 +26°C° 0 mm 3 mps 746 mmHg 84%
    22:00 +25°C° 0 mm 3 mps 747 mmHg 90%
    23:00 +25°C° 0 mm 3 mps 747 mmHg 89%
    Show more